Location: Ferchesar
(52.6477°N, 12.4298°E)
Time: 17:18:33
(UTC+01:00)

S-56A Canister/Altair - Visible Passes

Search period start: 26 February 2021 00:00
Search period end: 08 March 2021 00:00
Orbit: 632 x 2501 km, 38.9° (Epoch: 25 February)

Date Brightness Start Highest point End Pass type
(mag) Time Alt. Az. Time Alt. Az. Time Alt. Az.
26 Feb 10.4 19:43:58 10° W 19:56:04 36° SSW 20:03:29 17° SSE visible
26 Feb 10.7 21:51:59 10° W 21:58:49 17° SW 22:00:55 16° SSW visible
27 Feb 10.5 19:10:16 10° W 19:23:00 39° SSW 19:32:43 11° SE visible
27 Feb 10.7 21:17:45 10° W 21:26:05 20° SW 21:30:09 16° SSW visible
28 Feb 10.6 18:36:37 10° WSW 18:49:51 41° SSW 19:00:22 10° SE visible
28 Feb 10.7 20:43:41 10° W 20:53:16 24° SW 20:59:26 14° S visible
01 Mar 10.7 18:03:02 10° WSW 18:16:36 43° SSW 18:27:46 10° SE visible
01 Mar 10.8 20:09:44 10° W 20:20:21 27° SW 20:28:46 11° SSE visible
02 Mar 10.9 19:35:53 10° W 19:47:23 30° SW 19:56:45 10° SSE visible
02 Mar 11.2 21:48:40 10° WSW 21:49:36 10° SW 21:50:32 10° SW visible
03 Mar 11.0 19:02:07 10° W 19:14:19 33° SSW 19:24:25 10° SSE visible
03 Mar 11.2 21:11:50 10° WSW 21:16:53 13° SW 21:21:29 10° SSW visible
04 Mar 11.0 18:28:27 10° W 18:41:10 35° SSW 18:51:58 10° SSE visible
04 Mar 11.2 20:36:59 10° W 20:44:06 16° SW 20:50:24 10° SSW visible
05 Mar 11.2 20:02:36 10° W 20:11:14 19° SW 20:18:49 10° S visible
06 Mar 11.3 19:28:29 10° W 19:38:17 22° SW 19:46:56 10° S visible
07 Mar 11.3 18:54:34 10° W 19:05:16 25° SW 19:14:49 10° S visible
